User: anonymous   Login
Location: Balaclava NSW 2575, Australia
(34.4510°S, 150.4953°E)
Time: 11:47:26
(UTC+10:00)
Language:

Transit 4A - Orbit

View from above orbital plane
View from above orbital plane
View from above satellite
View from above satellite

Ground track
Ground track

The orbit data is extracted from the following two-line orbital elements,

1 00116U 61015A   21163.42230282 -.00000030  00000-0  36286-4 0  9990
2 00116  66.8112  48.2141 0069439 119.1946 241.6103 13.91791700 41905
Epoch (UTC): 12 June 2021 10:08:06
Eccentricity: 0.0069439
inclination: 66.8112°
perigee height: 871 km
apogee height: 973 km
right ascension of ascending node: 48.2141°
argument of perigee: 119.1946°
revolutions per day: 13.91791700
mean anomaly at epoch: 241.6103°
orbit number at epoch: 4190

The dashed part of the orbit path shows where the satellite is in the earth's shadow,  

DLR